Weather History for Sharurah, Saudi Arabia

Change the Weather History Date:

Tuesday, February 19, 2013

  Actual Average Record
Temperature  
Mean Temperature 77 °F -  
Max Temperature 95 °F 88 °F 95 °F (1997)
Min Temperature 59 °F 61 °F 53 °F (2000)
Cooling Degree Days 12    
Growing Degree Days 27 (Base 50)    
Moisture  
Dew Point 36 °F    
Average Humidity 21    
Maximum Humidity 34    
Minimum Humidity 9    
Precipitation  
Precipitation 0.00 in - - ()
Sea Level Pressure  
Sea Level Pressure 29.85 in    
Wind  
Wind Speed 6 mph ()    
Max Wind Speed 14 mph    
Max Gust Speed -    
Visibility 6.0 miles    
Events      
Averages and records for this station are not official NWS values.
T = Trace of Precipitation, MM = Missing Value Source: Averaged Metar Reports

Daily Weather History Graph

Daily Weather History Graph

Search for Another Location

Airport:

Trip Planner

Search our weather history database for the weather conditions in past years. The results will help you decide how hot, cold, wet, or windy it might be!

Date:

Astronomy

Feb. 19, 2013 Rise Set
Actual Time 6:16 AM AST 5:54 PM AST
Civil Twilight 5:54 AM AST 6:16 PM AST
Nautical Twilight 5:28 AM AST 6:42 PM AST
Astronomical Twilight 5:03 AM AST 7:07 PM AST
Moon 12:33 PM AST (2/19) 1:04 AM AST (2/19)
Length of Visible Light 12h 22m
Length of Day
11h 38m
Waxing Gibbous, 64% of the Moon is Illuminated
Feb 19
Waxing Gibbous
Feb 25
Full
Mar 5
Last Quarter
Mar 11
New
Mar 19
First Quarter

Hourly Weather History & Observations

Time (AST) Temp. Dew Point Humidity Pressure Visibility Wind Dir Wind Speed Gust Speed Precip Events Conditions
12:00 AM 76 °F 36 °F 13% 29.73 in 6 mi East 10.4 mph - -  
12:00 AM 75.2 °F 35.6 °F 24% 29.86 in - East 10.4 mph - N/A   Clear
1:00 AM 71.6 °F 35.6 °F 27% 29.86 in - East 13.8 mph - N/A   Clear
2:00 AM 69.8 °F 35.6 °F 28% 29.86 in - East 13.8 mph - N/A   Clear
3:00 AM 68 °F 36 °F 19% 29.73 in 6 mi East 10.4 mph - -  
3:00 AM 68.0 °F 35.6 °F 30% 29.86 in - East 10.4 mph - N/A   Clear
4:00 AM 66.2 °F 33.8 °F 30% 29.86 in - East 4.6 mph - N/A   Clear
5:00 AM 64.4 °F 33.8 °F 32% 29.89 in - Calm Calm - N/A   Clear
6:00 AM 62 °F 34 °F 23% 29.81 in 6 mi Calm Calm - -  
6:00 AM 62.6 °F 33.8 °F 34% 29.92 in - Calm Calm - N/A   Clear
7:00 AM 60.8 °F 32.0 °F 34% 29.95 in - Calm Calm - N/A   Clear
8:00 AM 64.4 °F 32.0 °F 30% 29.98 in - SSW 6.9 mph - N/A   Clear
9:00 AM 69 °F 30 °F 14% 29.87 in 6 mi SSW 5.8 mph - -  
9:00 AM 69.8 °F 30.2 °F 23% 29.98 in - SSW 5.8 mph - N/A   Clear
10:00 AM 75.2 °F 35.6 °F 24% 29.98 in - SW 6.9 mph - N/A   Clear
11:00 AM 80.6 °F 35.6 °F 20% 29.95 in - SW 5.8 mph - N/A   Clear
12:00 PM 83 °F 37 °F 11% 29.77 in 6 mi Calm Calm - -  
12:00 PM 82.4 °F 37.4 °F 20% 29.89 in - Calm Calm - N/A   Clear
1:00 PM 84.2 °F 39.2 °F 20% 29.86 in - Calm Calm - N/A   Clear
2:00 PM 87.8 °F 39.2 °F 18% 29.86 in - South 4.6 mph - N/A   Clear
3:00 PM 93 °F 43 °F 10% 29.69 in 6 mi SSW 6.9 mph - -  
3:00 PM 93.2 °F 42.8 °F 17% 29.83 in - SSW 6.9 mph - N/A   Clear
4:00 PM 93.2 °F 42.8 °F 17% 29.83 in - Calm Calm - N/A   Clear
5:00 PM 93.2 °F 41.0 °F 16% 29.83 in - Calm Calm - N/A   Clear
6:00 PM 93 °F 41 °F 9% 29.72 in 6 mi East 4.6 mph - -   Scattered Clouds
6:00 PM 93.2 °F 41.0 °F 16% 29.83 in - East 4.6 mph - N/A   Clear
7:00 PM 87.8 °F 39.2 °F 18% 29.86 in - ENE 5.8 mph - N/A   Clear
8:00 PM 84.2 °F 35.6 °F 18% 29.86 in - East 5.8 mph - N/A   Clear
9:00 PM 81 °F 34 °F 10% 29.75 in 6 mi East 5.8 mph - -  
9:00 PM 80.6 °F 33.8 °F 18% 29.89 in - East 5.8 mph - N/A   Clear
10:00 PM 78.8 °F 33.8 °F 20% 29.89 in - East 5.8 mph - N/A   Clear
11:00 PM 75.2 °F 30.2 °F 19% 29.86 in - South 10.4 mph - N/A   Clear